DELTA 1 DEB, 13525

Orbit data source: Space-Track

DELTA 1 DEB, 13525 is space debris in SSO originally from a launch on Tue, 06 Nov 1973 UTC launched from the Air Force Western Test Range (AFWTR). Debris objects in space refer to the collection of defunct objects orbiting the Earth. Examples of debris include non-operational satellites, rocket bodies, and fragments generated from explosions, collisions, or faulty payload assembly.

Loading next visibility...
Identifier
13525, 1973-086GN
Orbit
SSO
Country
Flag of USUS
Related business
Manufacturer
Unknown
Mission
Spacecraft
Bus & Motor
Unknown
Mass
Unknown
Launch date (UTC)
1973-11-06 (53 years ago)
Launch vehicle
Unknown
Launch site
Air Force Western Test Range (AFWTR)
Object type
Payload
Rocket body
Debris
Shape & HBR
Unknown shape, 0.1 m
Radar Cross Section
Medium (>0.1 m² and <1 m²)

Expand to show TLE details & history
Last TLE update: 3 days ago

TLE from 3 days ago
0 DELTA 1 DEB
1 13525U 73086GN  26170.41110137  .00000053  00000-0  63048-3 0  9996
2 13525 101.9502 148.8497 0077725 345.7348 168.8733 12.51216828 97120
Epoch: 2026-06-19T09:51Z
TLE epoch observation values (Epoch: 2026-06-19T09:51:59.158Z)
Latitude
24.66496°
Longitude
-81.23709°
Altitude
1,521.885 km
Speed
7.079 km/s
True Right ascension
22h 17m 35s
True Declination
24° 32' 51"
Sunlit
Object was in daylight at epoch
Visualization orbit readout
Latitude
Unknown
Longitude
Unknown
Altitude
Unknown
Speed
Unknown
Apparent Right ascension
Unknown
Apparent Declination
Unknown
Sunlit
N/A
Visualization observer readout
Local Sidereal Time
05:36:36
Azimuth
Unknown
Elevation
Unknown
Doppler factor
Unknown
Orbital elements
Apogee altitude
1,517.865 km
Perigee altitude
1,396.068 km
Semi-major axis
7,835.103 km
Eccentricity
0.00777
Inclination
101.9502°
RAAN
148.8497°
Arg. of periapsis
345.7348°
True anomaly
169.04356°
Mean anomaly
168.8733°
Eccentric anomaly
168.95859°
Mean motion
3.12951 °/min
Orbital period
115.03 mins
BSTAR
0.00063048
Loading maneuver chart data...
Computing Atmospheric mass density...
Loading historical data...
Loading historical data...
Loading historical data...
Loading historical data...
Loading historical data...
Loading historical data...
Loading historical data...

Documentation

Showing up to 5 results
|